[[{"header":{"parameterUnit":"m.s-1","parameterCategory":1,"la1":30.2991,"la2":30.254,"lo1":-89.0895,"lo2":-89.0444,"dy":0.0017,"dx":0.0017,"nx":28,"ny":28,"refTime":"2024-10-21T21:00:00:Z","depth":0,"parameterNumber":2,"parameterNumberName":"U-component_of_WINDS"},"data":[0,0,0,0,0,0,0,0,0,0,0,0,0,0,0,0,0,0,0,0,0,0,0,0,0,0,0,0,0,0,0,0,0,0,0,0,0,0,0,0,0,0,0,0,0,0,0,0,0,0,0,0,0,0,0,0,0,0,0.0979,0.0978,0,0.0926,0.0926,0.0925,0.0905,0.0905,0.0905,0.0905,0.085,0.0848,0.0847,0,0,0,0,0,0,0,0,0,0,0,0,0,0.1059,0.1058,0.0979,0.0978,0.0977,0.0927,0.0926,0.0925,0.0905,0.0905,0.0905,0.0905,0.085,0.0849,0.0847,0,0,0,0,0,0,0,0,0,0,0,0,0,0.1017,0.1057,0.0979,0.0961,0.0959,0.0927,0.0926,0.0925,0.0904,0.0905,0.0905,0.0905,0.0851,0.0849,0.0846,0.0828,0,0,0.0839,0.0838,0,0,0,0,0,0,0,0,0.102,0.1014,0.0964,0.0962,0.096,0.0922,0.0934,0.0892,0.0904,0.0925,0.0905,0.0905,0.0874,0.087,0.0859,0.0825,0.0823,0.0839,0.0837,0.0836,0.0836,0,0,0,0,0,0,0,0.1023,0.1016,0.0958,0.0963,0.0961,0.0955,0.095,0.0926,0.0899,0.0923,0.0922,0.0916,0.0873,0.0862,0.0858,0.0822,0.0839,0.0837,0.0835,0.0834,0.077,0.077,0,0,0,0,0,0,0.1029,0.1019,0.096,0.0956,0.0991,0.0954,0.0947,0.0934,0.0899,0.0894,0.0916,0.0915,0.0866,0.0861,0.0856,0.0831,0.0836,0.0834,0.0833,0.077,0.077,0.077,0,0,0,0,0,0,0.103,0.1024,0.0962,0.0987,0.0979,0.0952,0.0937,0.0933,0.0922,0.0893,0.0888,0.091,0.0866,0.0859,0.0835,0.0829,0.0833,0.0831,0.0771,0.077,0.077,0.0783,0,0,0,0,0,0,0.1033,0.1024,0.1017,0.0987,0.0978,0.0942,0.0937,0.0932,0.0918,0.0917,0.0886,0.0881,0.0865,0.0839,0.0833,0.0826,0.0829,0.0771,0.077,0.077,0.0783,0.0783,0.0783,0,0,0,0,0,0.1036,0.1022,0.1017,0.101,0.0968,0.0942,0.0936,0.0918,0.0918,0.091,0.0892,0.0882,0.0831,0.0836,0.0829,0.0822,0.0771,0.0771,0.077,0.0783,0.0783,0.0783,0,0,0,0,0,0,0.1051,0.1018,0.1012,0.0988,0.0968,0.0938,0.0928,0.0919,0.0898,0.0898,0.0876,0.0869,0.0847,0.0832,0.0839,0.0802,0.08,0.0798,0.0812,0.0812,0.0813,0.0816,0.0827,0,0,0,0,0,0.1052,0.1034,0.1006,0.0988,0.0978,0.0955,0.0943,0.0931,0.0909,0.09,0.088,0.0859,0.0838,0.0824,0.0804,0.0781,0.0774,0.0772,0.0773,0.0773,0.0771,0.0758,0.0757,0.0768,0.0768,0.0768,0,0,0.1053,0.1033,0.1022,0.099,0.0973,0.0955,0.0948,0.0928,0.0914,0.0897,0.0873,0.0858,0.0832,0.0809,0.0798,0.0796,0.0767,0.0772,0.0772,0.077,0.0757,0.0756,0.0755,0.0767,0.0767,0.0767,0,0,0.1045,0.1028,0.1012,0.0995,0.097,0.0955,0.0951,0.0923,0.0912,0.0888,0.0875,0.0858,0.0822,0.0805,0.0792,0.0779,0.0769,0.0773,0.0773,0.0761,0.076,0.0759,0.0754,0.0753,0.0771,0.0771,0.0771,0,0.105,0.1021,0.1004,0.0985,0.0971,0.0956,0.0939,0.0924,0.0893,0.0884,0.0882,0.0838,0.082,0.0792,0.0789,0.0779,0.0774,0.0776,0.0762,0.076,0.0759,0.0755,0.0753,0.0772,0.0772,0.0772,0.0772,0,0.1028,0.1009,0.0998,0.0969,0.0955,0.0937,0.0916,0.0903,0.0893,0.0878,0.0854,0.0832,0.0807,0.08,0.0789,0.0771,0.077,0.0766,0.0763,0.0759,0.0754,0.0752,0.0773,0.0772,0.0772,0.0772,0,0,0.1027,0.099,0.0986,0.0973,0.0945,0.093,0.0911,0.0887,0.0877,0.0856,0.084,0.0811,0.0807,0.0792,0.0779,0.0768,0.076,0.0765,0.0764,0.0764,0.0738,0.0741,0.0739,0.0754,0.0753,0.0753,0.074,0,0.1015,0.0982,0.0966,0.094,0.0922,0.0908,0.0892,0.0873,0.0859,0.0841,0.0825,0.0805,0.0801,0.0792,0.0781,0.0763,0.0754,0.0764,0.0738,0.0737,0.0744,0.0737,0.074,0.0728,0.0738,0.0738,0.0737,0,0.0996,0.0977,0.0949,0.0923,0.0915,0.0901,0.0878,0.0862,0.084,0.0831,0.0814,0.0803,0.0783,0.0783,0.0755,0.0762,0.0751,0.0741,0.074,0.0736,0.0736,0.0732,0.0724,0.0722,0.0734,0.0734,0.0735,0,0.0997,0.0964,0.0944,0.0933,0.0903,0.0894,0.0881,0.0859,0.0846,0.0826,0.0817,0.0795,0.0783,0.0766,0.0748,0.075,0.0722,0.0721,0.0713,0.0714,0.0707,0.0707,0.0697,0.0701,0.0701,0.0701,0.0701,0,0.0985,0.0968,0.0944,0.0931,0.0912,0.0895,0.0876,0.0862,0.0843,0.0827,0.0814,0.0799,0.0778,0.076,0.0746,0.0725,0.072,0.0711,0.0708,0.0712,0.0713,0.0703,0.0703,0.0701,0.0701,0.0701,0.0701,0,0.0983,0.0966,0.0942,0.0916,0.091,0.0897,0.0874,0.0861,0.0847,0.0827,0.0821,0.0799,0.0778,0.0759,0.0731,0.0722,0.07,0.0696,0.0707,0.0705,0.0699,0.0699,0.068,0.0677,0.0685,0.0685,0.0685,0,0.0975,0.0962,0.0936,0.0925,0.0912,0.0894,0.0881,0.0864,0.085,0.0825,0.0815,0.0793,0.0775,0.0741,0.0722,0.0701,0.0695,0.0691,0.0692,0.0697,0.0695,0.0695,0.0694,0.069,0.069,0.069,0.069,0,0.0964,0.0957,0.0939,0.0918,0.0903,0.0886,0.0868,0.0859,0.0839,0.0825,0.0803,0.0789,0.0761,0.0739,0.0715,0.0702,0.0692,0.069,0.0687,0.0691,0.0698,0.0693,0.0707,0.069,0.069,0.069,0.069,0.069,0.0958,0.0947,0.0926,0.0907,0.0892,0.0876,0.0863,0.0848,0.083,0.0806,0.0797,0.0775,0.0754,0.0722,0.0708,0.0691,0.0689,0.0685,0.0684,0.0683,0.0683,0.0702,0.0686,0.0686,0.0686,0.0686,0.0686,0,0.0946,0.0933,0.0915,0.0891,0.0876,0.087,0.0851,0.0838,0.0819,0.0801,0.0783,0.0759,0.0738,0.0718,0.0697,0.0686,0.0682,0.0681,0.0681,0.0678,0.0686,0.0691,0.0685,0.0685,0.0685,0.0685,0.0685,0.0685,0.0938,0.0917,0.0908,0.088,0.0867,0.0846,0.0835,0.082,0.0806,0.0779,0.0762,0.075,0.0731,0.0708,0.0689,0.0683,0.0676,0.0676,0.067,0.0677,0.0677,0.0678,0.0682,0.0675,0.0675,0.0663,0.0663,0.0663]},{"header":{"parameterUnit":"m.s-1","parameterCategory":1,"la1":30.2991,"la2":30.254,"lo1":-89.0895,"lo2":-89.0444,"dy":0.0017,"dx":0.0017,"nx":28,"ny":28,"refTime":"2024-10-21T21:00:00:Z","depth":0,"parameterNumber":3,"parameterNumberName":"V-component_of_WINDS"},"data":[0,0,0,0,0,0,0,0,0,0,0,0,0,0,0,0,0,0,0,0,0,0,0,0,0,0,0,0,0,0,0,0,0,0,0,0,0,0,0,0,0,0,0,0,0,0,0,0,0,0,0,0,0,0,0,0,0,0,-2.8698,-2.8699,0,-2.8777,-2.8778,-2.8779,-2.8737,-2.8735,-2.8733,-2.8731,-2.881,-2.8814,-2.8818,0,0,0,0,0,0,0,0,0,0,0,0,0,-2.851,-2.8513,-2.8698,-2.8699,-2.87,-2.8777,-2.8778,-2.8779,-2.8738,-2.8735,-2.8733,-2.873,-2.8809,-2.8814,-2.8819,0,0,0,0,0,0,0,0,0,0,0,0,0,-2.859,-2.8515,-2.8698,-2.8689,-2.8689,-2.8777,-2.8778,-2.878,-2.8738,-2.8735,-2.8732,-2.8729,-2.8807,-2.8813,-2.8819,-2.8921,0,0,-2.8838,-2.8841,0,0,0,0,0,0,0,0,-2.8586,-2.8597,-2.8689,-2.869,-2.869,-2.8744,-2.8741,-2.8827,-2.8739,-2.8719,-2.8731,-2.8727,-2.8791,-2.8798,-2.882,-2.8924,-2.8928,-2.8838,-2.8842,-2.8845,-2.8846,0,0,0,0,0,0,0,-2.858,-2.8594,-2.873,-2.8691,-2.8691,-2.868,-2.8688,-2.8757,-2.8772,-2.8721,-2.8718,-2.8728,-2.879,-2.8814,-2.8821,-2.8929,-2.8838,-2.8844,-2.8847,-2.885,-2.9121,-2.9124,0,0,0,0,0,0,-2.8576,-2.8589,-2.8727,-2.8732,-2.8629,-2.8686,-2.8695,-2.873,-2.8771,-2.8774,-2.8731,-2.8726,-2.8805,-2.8814,-2.8824,-2.8946,-2.8845,-2.885,-2.8854,-2.9118,-2.9122,-2.9126,0,0,0,0,0,0,-2.8572,-2.8588,-2.8724,-2.866,-2.8676,-2.8693,-2.8732,-2.8733,-2.8757,-2.8778,-2.8781,-2.8752,-2.8803,-2.8815,-2.8897,-2.8948,-2.8853,-2.8859,-2.9113,-2.9119,-2.9124,-2.9191,0,0,0,0,0,0,-2.8566,-2.8587,-2.8626,-2.8661,-2.868,-2.8797,-2.8735,-2.8737,-2.8768,-2.8762,-2.8799,-2.8802,-2.8801,-2.8888,-2.8903,-2.8955,-2.8864,-2.9109,-2.9116,-2.9122,-2.9184,-2.9198,-2.9209,0,0,0,0,0,-2.856,-2.8641,-2.8628,-2.8645,-2.8729,-2.88,-2.881,-2.8808,-2.8772,-2.8811,-2.8825,-2.8801,-2.894,-2.8897,-2.8913,-2.8968,-2.9106,-2.9114,-2.9122,-2.9178,-2.9195,-2.9209,0,0,0,0,0,0,-2.8611,-2.8646,-2.8632,-2.8727,-2.8761,-2.8792,-2.8842,-2.8825,-2.8869,-2.8862,-2.8857,-2.8866,-2.8951,-2.8967,-2.8919,-2.9068,-2.9017,-2.9029,-2.9055,-2.9071,-2.9083,-2.9078,-2.8869,0,0,0,0,0,-2.8633,-2.8688,-2.8715,-2.8796,-2.8814,-2.8825,-2.8856,-2.8851,-2.8886,-2.8899,-2.8919,-2.8953,-2.9004,-2.9038,-2.9086,-2.9186,-2.9194,-2.9231,-2.9244,-2.9254,-2.9264,-2.9319,-2.9336,-2.9152,-2.9152,-2.9152,0,0,-2.868,-2.8706,-2.874,-2.8807,-2.8833,-2.889,-2.8837,-2.8899,-2.8941,-2.8908,-2.8988,-2.9003,-2.9041,-2.9132,-2.9173,-2.9148,-2.9317,-2.9264,-2.9272,-2.9277,-2.9329,-2.9346,-2.9362,-2.9157,-2.9156,-2.9155,0,0,-2.8794,-2.8819,-2.889,-2.8917,-2.8957,-2.8964,-2.8981,-2.9015,-2.9025,-2.9104,-2.9081,-2.913,-2.9219,-2.9247,-2.9272,-2.9398,-2.9378,-2.9414,-2.948,-2.9533,-2.9548,-2.9561,-2.9606,-2.9622,-2.9424,-2.9424,-2.9424,0,-2.8847,-2.8932,-2.8928,-2.8992,-2.9023,-2.8997,-2.9068,-2.9095,-2.9148,-2.9169,-2.9141,-2.9252,-2.9275,-2.9373,-2.9403,-2.9425,-2.9444,-2.941,-2.9546,-2.9559,-2.9571,-2.9614,-2.9631,-2.9428,-2.9428,-2.9427,-2.9427,0,-2.8995,-2.9054,-2.9107,-2.916,-2.9196,-2.9264,-2.927,-2.9307,-2.9299,-2.9309,-2.9391,-2.9418,-2.9471,-2.9494,-2.9487,-2.9592,-2.9575,-2.9546,-2.9495,-2.9593,-2.9633,-2.965,-2.9434,-2.9433,-2.9431,-2.943,0,0,-2.9143,-2.9195,-2.9214,-2.9238,-2.9281,-2.9326,-2.9393,-2.9446,-2.9478,-2.9516,-2.9572,-2.9647,-2.9621,-2.9651,-2.9646,-2.9693,-2.9792,-2.9658,-2.9659,-2.9683,-2.9909,-2.9931,-2.9951,-2.9778,-2.9781,-2.9784,-2.9907,0,-2.9261,-2.9378,-2.9377,-2.9486,-2.9541,-2.9517,-2.9575,-2.9607,-2.9618,-2.9666,-2.9678,-2.9732,-2.9693,-2.9711,-2.9756,-2.977,-2.9837,-2.9761,-2.983,-2.9833,-2.9823,-2.9972,-2.9995,-3.011,-2.9922,-2.9925,-2.9927,0,-2.9413,-2.9458,-2.9572,-2.9608,-2.9631,-2.9683,-2.9732,-2.9778,-2.9814,-2.9819,-2.9852,-2.9841,-2.9908,-2.9854,-2.9947,-2.9896,-2.9924,-2.9935,-2.9939,-2.9946,-2.9886,-2.9984,-3.0146,-3.0164,-2.9952,-2.995,-2.9948,0,-2.9511,-2.9599,-2.9679,-2.9701,-2.9744,-2.9781,-2.9801,-2.9834,-2.9866,-2.9909,-2.993,-2.998,-3.0007,-3.0046,-3.0048,-3.0008,-3.0142,-3.0088,-3.0148,-3.0148,-3.0177,-3.0176,-3.0348,-3.0194,-3.0194,-3.0194,-3.0193,0,-2.9643,-2.9714,-2.9724,-2.9773,-2.9852,-2.985,-2.9928,-2.9944,-2.9974,-3.0026,-3.0008,-3.0056,-3.0056,-3.0105,-3.0107,-3.0184,-3.0196,-3.0202,-3.0202,-3.0205,-3.0204,-3.0223,-3.0216,-3.0198,-3.0197,-3.0196,-3.0195,0,-2.9766,-2.9775,-2.9861,-2.9895,-2.9906,-2.9963,-2.9991,-3.0038,-3.0048,-3.0114,-3.0129,-3.0144,-3.0201,-3.0207,-3.0274,-3.0275,-3.0368,-3.0359,-3.0357,-3.0356,-3.0415,-3.041,-3.0607,-3.0633,-3.0461,-3.0463,-3.0464,0,-2.985,-2.9904,-2.9945,-2.9979,-3.0001,-3.0056,-3.0089,-3.0089,-3.0125,-3.017,-3.0212,-3.0268,-3.0313,-3.0406,-3.0422,-3.0473,-3.0465,-3.0531,-3.0473,-3.0474,-3.0467,-3.0465,-3.047,-3.0542,-3.0544,-3.0545,-3.0547,0,-2.9998,-3.0,-3.005,-3.0102,-3.0143,-3.0183,-3.0221,-3.0249,-3.0254,-3.0295,-3.0354,-3.0389,-3.0458,-3.0514,-3.0564,-3.0583,-3.0567,-3.0565,-3.0582,-3.0585,-3.0582,-3.0586,-3.0388,-3.056,-3.0559,-3.0558,-3.0557,-3.0557,-3.0105,-3.0152,-3.0189,-3.0245,-3.0274,-3.031,-3.0356,-3.0372,-3.0422,-3.0479,-3.0475,-3.0541,-3.0576,-3.0642,-3.0665,-3.0716,-3.0694,-3.0718,-3.0724,-3.073,-3.0737,-3.0573,-3.0725,-3.0724,-3.0724,-3.0724,-3.0723,0,-3.0253,-3.0275,-3.0327,-3.0381,-3.0426,-3.0407,-3.0448,-3.0486,-3.0544,-3.0579,-3.0624,-3.0692,-3.0747,-3.0768,-3.0821,-3.0858,-3.0851,-3.0872,-3.0869,-3.0874,-3.0753,-3.0734,-3.0876,-3.0876,-3.0876,-3.0876,-3.0876,-3.0876,-3.0335,-3.0415,-3.0422,-3.0517,-3.0538,-3.0604,-3.0629,-3.0662,-3.069,-3.0768,-3.0813,-3.0827,-3.0856,-3.0911,-3.096,-3.0965,-3.0986,-3.101,-3.1011,-3.0898,-3.0883,-3.0868,-3.085,-3.1014,-3.1014,-3.1128,-3.1129,-3.113]}]]